STARLINK-35681

Last updated on Wed Dec 10 2025 00:02:05 GMT+0000 (Coordinated Universal Time)

1 66395U 25257R 25343.66668981 .00099056 00000+0 24624-2 0 9995 2 66395 53.1596 278.7733 0000956 113.8160 105.8933 15.39519622 5846
UTC large
Height (km)
Speed (km/s)
/
Latitude / Longitude
Inclination (degrees)
Orbital Period (minutes)
Azimuth
Elevation
Range (km)
Doppler Factor

Next 0 passes for location: London (51.5072 / 0.1276)

Sorry there are no passes over London.